{"data":{"norad_id":60200,"epoch":"2026-05-25T04:54:19.321920Z","epoch_age_seconds":53331,"freshness":"FRESH","line1":"1 60200U 24124T   26145.20439030  .00000400  00000+0  24652-4 0  9996","line2":"2 60200  53.1613 326.8655 0001076  93.0132 267.0992 15.31700877106018","mean_motion":15.31700877,"eccentricity":0.0001076,"inclination_deg":53.1613,"raan_deg":326.8655,"arg_perigee_deg":93.0132,"mean_anomaly_deg":267.0992,"bstar":2.4652e-5,"rev_number":10601,"period_min":94.013134132324,"perigee_km":470.00044205214,"apogee_km":471.47431981892,"semimajor_km":6848.8743809355,"source":"CELESTRAK","updated_at":"2026-05-25T13:38:19.197121Z"}}